RBSP A

Last updated on Nov. 22, 2019, 4:20 a.m. UTC

1 38752U 12046A   19324.01299136  .00002510  00000-0  48270-3 0  9990
2 38752   9.7828 126.9150 6930602 243.4004  32.0911  2.74090871 70784
UTC
Height (km)
Latitude
Longitude
Inclination
Orbital Period
UTC large
Height (km)
Speed (km/s)
/
Latitude / Longitude
Inclination (degrees)
Orbital Period (minutes)
Azimuth
Elevation
Range (km)
Doppler Factor
iOS Compass Heading
iOS Angle

Next 30 passes for location: Hong Kong

Rise time Rise Azimuth (degrees) Set time Set Azimuth (degrees) Duration Max altitude (degrees)

No matching passes for this satellites